Retour au catalogue

STARLINK-31413

ActifCommunicationsVLEO
NORAD 59353·PAYLOAD·🇺🇸 United States

Lancé Mar 31, 2024 depuis Cape Canaveral Space Force Station

Loading…

Prochains Passages (prochaines 24 heures)

TLE

FraisSource: CelesTrak SupGP

Époque: Sep 14, 2026, 22:52 UTC

1 59353C 24060F   26257.95326389  .00034185  00000+0  12386-2 0  2573
2 59353  43.0013 270.7664 0001591 265.8848 356.9581 15.27550812    11

Suivez STARLINK-31413 en temps réel avec AllMySat

Download on the App Store